Content
SEND FEEDBACK

Daily
Averages
Monthly
Summary
United States of America

RAPID CITY, SOUTH DAKOTA


Home > North America > United States > South Dakota
Elevation: 3162 feet     Latitude: 44 03N     Longitude: 103 04W

WEATHER
 
SELECT A DAY
Number of Records: 204,399;   Date Range: 1/1/95 - 11/27/14
 
SHARE

PRINT THIS DATA

[ ← Previous Day ]
WEATHER ALMANAC - JULY 6, 2013
[ Next Day → ]
[ °C ]   °F
Weather ElementAverageHighLow
Temperature76.9 °F89.6 °F (2:05 pm)61 °F (4:52 am)
Dewpoint58.5 °F63 °F (7:52 am)53.1 °F (6:52 pm)
Humidity56.8 %93 % (1:52 am)34 % (2:52 pm)
Barometer29.78 in29.87 in (2:05 pm)29.70 in (3:52 am)
Wind Speed10.2 mph17.3 mph (10:52 am)
Wind Gust26.5 mph (1:52 pm)
Weather ElementAverage
Visibility10 mi
Wind DirectionWNW (303.2 °)

Weather ElementTotal
Precipitation---
Cooling Degree Days10.3 (Base 65)
Growing Degree Days25.3 (Base 50)
Averaged from 25 records on July 6, 2013
WEATHER CONDITIONS BREAKOUT
WIND DIRECTION BREAKOUT
WEATHER BY HOUR - JULY 6, 2013
[ °C ]   °F
Local TimeTemperatureDewpointHumidityBarometerVisibilityWind DirectionWind SpeedGust SpeedPrecipitationEventsConditions
1:52 AM64.0 °F62.1 °F93 %29.71 in10.0 miNNW (340°)5.8 mphClear
2:52 AM63.0 °F60.1 °F90 %29.71 in10.0 miNorth (350°)8.1 mphClear
3:52 AM62.1 °F59.0 °F90 %29.70 in10.0 miNorth (350°)6.9 mphClear
4:52 AM61.0 °F59.0 °F93 %29.70 in10.0 miNNW (330°)8.1 mphClear
5:52 AM62.1 °F59.0 °F90 %29.73 in10.0 miWNW (300°)6.9 mphClear
6:52 AM66.9 °F62.1 °F84 %29.74 in10.0 miNW (320°)6.9 mphClear
7:52 AM72.0 °F63.0 °F73 %29.74 in10.0 miNW (320°)10.4 mphClear
8:52 AM77.0 °F63.0 °F62 %29.75 in10.0 miNNW (330°)12.7 mphClear
9:52 AM80.1 °F63.0 °F56 %29.75 in10.0 miNNW (330°)10.4 mphClear
10:52 AM82.9 °F62.1 °F49 %29.76 in10.0 miNorth (350°)17.3 mphClear
11:52 AM86.0 °F57.9 °F38 %29.77 in10.0 miNorth (350°)15.0 mph25.3 mphClear
12:52 PM87.1 °F60.1 °F40 %29.77 in10.0 miNNW (340°)16.1 mph21.9 mphClear
1:52 PM88.0 °F57.9 °F36 %29.78 in10.0 miNNW (340°)16.1 mph26.5 mphClear
2:05 PM89.6 °F59.0 °F36 %29.87 in10.0 miNNE (20°)15.0 mphThunderstormClear
2:20 PM87.8 °F57.2 °F35 %29.87 in10.0 miNorth (360°)17.3 mph25.3 mphClear
2:52 PM89.1 °F57.0 °F34 %29.79 in10.0 miNorth (360°)16.1 mph21.9 mphClear
3:52 PM84.0 °F55.0 °F37 %29.80 in10.0 miNorth (350°)9.2 mphClear
4:52 PM82.9 °F57.0 °F41 %29.80 in10.0 miNorth (350°)9.2 mph0.00 inMostly Cloudy
5:52 PM84.9 °F55.0 °F36 %29.78 in10.0 miNW (320°)5.8 mph0.00 inClear
6:52 PM82.9 °F53.1 °F36 %29.80 in10.0 miNorth (360°)9.2 mphClear
7:52 PM78.1 °F55.9 °F46 %29.79 in10.0 miNorth (360°)9.2 mphClear
8:52 PM75.0 °F57.9 °F55 %29.83 in10.0 miNorth (350°)6.9 mphClear
9:52 PM73.9 °F59.0 °F59 %29.85 in10.0 miNNE (20°)5.8 mphMostly Cloudy
10:52 PM73.9 °F53.1 °F48 %29.85 in10.0 miWSW (240°)5.8 mphPartly Cloudy
11:52 PM69.1 °F55.9 °F63 %29.87 in10.0 miSE (140°)4.6 mphMostly Cloudy
Hourly data recorded from KRAP, located miles away from Rapid City, South Dakota







STORIES FROM OUR PARTNERS